contact:dominique.lefevre@mio.osupytheas.fr, maurice.libes@osupytheas.fr, didier.mallarino@osupytheas.fr
Project:EMSO http://www.emso-fr.org/EMSO-France
Depth: 2436.0 m
Title:EMSO Ligure Ouest : Data MII capteur AQUADOPP
Date,Latitude,Longitude,X_East,Y_North,Z_Up,Amplitude_X,Amplitude_Y,Amplitude_Z,Batterie,SoundSpeed,Heading,Pitch,Roll,Pressure,TIS,Speed,Direction
, degrees North, degrees East, m.s-1, m.s-1,m.s-1, 1, 1, 1, Volt, m.s-1, degree, degree, degree, dbar, degree_C, m.s-1, degree
2023-06-25T00:04:03,42.805,6.029,0.002,-0.013,-0.017,102.0,102.0,101.0,13.3,1505.2,320.8,-0.8,1.8,2471.532,13.29,0.013,171.3
2023-06-25T00:07:03,42.805,6.029,0.026,-0.006,-0.008,101.0,102.0,100.0,13.4,1505.2,331.7,-0.8,1.8,2471.561,13.29,0.026,103.0
2023-06-25T00:10:03,42.805,6.029,-0.03,-0.003,-0.053,101.0,100.0,100.0,13.4,1505.2,331.2,-0.7,1.9,2471.557,13.29,0.03,264.3
2023-06-25T00:13:03,42.805,6.029,0.006,0.005,-0.04,101.0,101.0,101.0,13.4,1505.2,345.6,-0.8,1.8,2471.51,13.29,0.007,50.2
2023-06-25T00:16:03,42.805,6.029,0.0,-0.021,-0.035,102.0,101.0,101.0,13.4,1505.2,340.4,-0.8,1.8,2471.502,13.29,0.021,180.0
2023-06-25T00:19:03,42.805,6.029,0.012,-0.011,-0.042,102.0,100.0,101.0,13.3,1505.2,340.4,-0.8,1.8,2471.5,13.29,0.016,132.5
2023-06-25T00:22:03,42.805,6.029,0.006,-0.015,-0.028,101.0,100.0,101.0,13.4,1505.2,327.2,-0.8,1.8,2471.528,13.29,0.016,158.2
2023-06-25T00:25:03,42.805,6.029,0.007,0.004,-0.026,101.0,102.0,100.0,13.4,1505.2,329.0,-0.7,1.8,2471.487,13.29,0.008,60.3
2023-06-25T00:28:03,42.805,6.029,0.02,-0.035,-0.026,101.0,102.0,101.0,13.3,1505.2,331.9,-0.8,1.8,2471.5,13.29,0.04,150.3
2023-06-25T00:31:03,42.805,6.029,-0.005,-0.006,-0.012,102.0,102.0,100.0,13.3,1505.2,350.5,-0.8,1.8,2471.531,13.29,0.007,219.8
2023-06-25T00:34:03,42.805,6.029,0.032,-0.016,-0.025,101.0,102.0,102.0,13.3,1505.2,327.0,-0.8,1.9,2471.479,13.29,0.035,116.6
2023-06-25T00:37:03,42.805,6.029,0.018,-0.004,0.008,102.0,102.0,100.0,13.3,1505.2,334.4,-0.7,1.8,2471.477,13.29,0.018,102.5
2023-06-25T00:40:03,42.805,6.029,0.022,-0.01,0.015,101.0,101.0,101.0,13.4,1505.2,341.8,-0.8,1.8,2471.486,13.29,0.024,114.4
2023-06-25T00:43:03,42.805,6.029,-0.005,-0.02,-0.024,102.0,103.0,100.0,13.4,1505.2,322.3,-0.8,1.8,2471.53,13.29,0.02,194.0
2023-06-25T00:46:03,42.805,6.029,0.011,-0.044,-0.042,101.0,103.0,102.0,13.4,1505.2,340.8,-0.8,1.8,2471.516,13.29,0.045,166.0
2023-06-25T00:49:03,42.805,6.029,-0.001,-0.011,-0.033,101.0,102.0,101.0,13.4,1505.2,352.0,-0.8,1.8,2471.463,13.29,0.011,185.2
2023-06-25T00:52:03,42.805,6.029,0.003,-0.001,0.017,103.0,101.0,101.0,13.4,1505.2,329.6,-0.8,1.8,2471.502,13.29,0.003,108.4
2023-06-25T00:55:03,42.805,6.029,0.036,0.0,0.033,101.0,102.0,101.0,13.4,1505.2,335.5,-0.8,1.8,2471.513,13.29,0.036,90.0
2023-06-25T00:58:03,42.805,6.029,0.013,-0.012,-0.006,103.0,101.0,100.0,13.4,1505.2,346.2,-0.8,1.8,2471.467,13.29,0.017,132.7
2023-06-25T01:01:03,42.805,6.029,-0.005,-0.009,-0.009,101.0,101.0,100.0,13.4,1505.2,336.6,-0.7,1.8,2471.447,13.29,0.01,209.1
2023-06-25T01:04:03,42.805,6.029,-0.016,-0.008,-0.067,103.0,103.0,103.0,13.4,1505.2,329.3,-0.8,1.8,2471.447,13.29,0.017,243.4
2023-06-25T01:07:03,42.805,6.029,0.003,-0.003,0.024,101.0,102.0,101.0,13.4,1505.2,348.2,-0.8,1.8,2471.49,13.29,0.004,135.0
2023-06-25T01:10:03,42.805,6.029,-0.011,0.0,0.004,102.0,102.0,100.0,13.4,1505.2,334.9,-0.8,1.8,2471.484,13.29,0.011,270.0
2023-06-25T01:13:03,42.805,6.029,-0.017,-0.021,-0.027,100.0,101.0,101.0,13.3,1505.2,346.5,-0.8,1.8,2471.529,13.29,0.027,219.0
2023-06-25T01:16:03,42.805,6.029,0.019,-0.02,-0.015,102.0,102.0,100.0,13.3,1505.2,342.9,-0.8,1.8,2471.47,13.29,0.027,136.5
2023-06-25T01:19:03,42.805,6.029,0.02,-0.022,-0.01,102.0,102.0,100.0,13.4,1505.2,338.8,-0.8,1.8,2471.463,13.29,0.029,137.7
2023-06-25T01:22:03,42.805,6.029,-0.026,0.026,-0.01,102.0,101.0,101.0,13.3,1505.2,352.1,-0.8,1.9,2471.482,13.29,0.036,315.0
2023-06-25T01:25:03,42.805,6.029,0.027,-0.009,0.005,100.0,102.0,101.0,13.4,1505.2,319.8,-0.8,1.8,2471.479,13.29,0.028,108.4
2023-06-25T01:28:03,42.805,6.029,0.005,0.0,-0.03,102.0,101.0,102.0,13.4,1505.2,334.4,-0.8,1.8,2471.489,13.29,0.005,90.0
2023-06-25T01:31:03,42.805,6.029,0.01,-0.028,-0.046,100.0,103.0,100.0,13.4,1505.2,320.5,-0.8,1.8,2471.496,13.29,0.029,160.4
2023-06-25T01:34:03,42.805,6.029,-0.005,-0.013,-0.026,100.0,103.0,101.0,13.4,1505.2,327.7,-0.7,1.8,2471.487,13.29,0.013,201.0
2023-06-25T01:37:03,42.805,6.029,0.01,-0.016,0.006,100.0,103.0,101.0,13.4,1505.2,346.5,-0.7,1.8,2471.498,13.29,0.018,148.0
2023-06-25T01:40:03,42.805,6.029,0.008,-0.017,-0.035,101.0,102.0,100.0,13.3,1505.2,325.4,-0.8,1.8,2471.474,13.29,0.018,154.8
2023-06-25T01:43:03,42.805,6.029,-0.007,-0.024,-0.014,102.0,101.0,102.0,13.4,1505.2,351.4,-0.8,1.8,2471.466,13.29,0.025,196.3
2023-06-25T01:46:03,42.805,6.029,0.004,-0.002,0.0,103.0,102.0,100.0,13.4,1505.2,337.4,-0.8,1.8,2471.455,13.29,0.004,116.6
2023-06-25T01:49:03,42.805,6.029,-0.005,-0.01,-0.012,101.0,103.0,101.0,13.4,1505.2,328.8,-0.8,1.8,2471.452,13.29,0.011,206.6
2023-06-25T01:52:03,42.805,6.029,0.013,-0.008,-0.029,103.0,100.0,102.0,13.4,1505.2,327.1,-0.8,1.8,2471.495,13.29,0.015,121.6
2023-06-25T01:55:03,42.805,6.029,-0.016,0.002,-0.035,103.0,102.0,101.0,13.3,1505.2,324.3,-0.8,1.8,2471.503,13.29,0.016,277.1
2023-06-25T01:58:03,42.805,6.029,0.008,-0.01,-0.031,102.0,102.0,100.0,13.4,1505.2,330.8,-0.7,1.8,2471.46,13.29,0.012,141.3
2023-06-25T02:04:03,42.805,6.029,-0.004,-0.01,0.011,101.0,101.0,101.0,13.3,1505.2,340.4,-0.8,1.8,2471.496,13.28,0.01,201.8
2023-06-25T02:07:03,42.805,6.029,-0.003,-0.009,-0.034,102.0,103.0,101.0,13.4,1505.2,344.0,-0.8,1.8,2471.522,13.29,0.009,198.4
2023-06-25T02:10:03,42.805,6.029,-0.002,-0.015,-0.018,100.0,102.0,101.0,13.4,1505.2,340.4,-0.8,1.8,2471.502,13.29,0.015,187.6
2023-06-25T02:13:03,42.805,6.029,0.007,0.007,-0.014,106.0,100.0,101.0,13.4,1505.2,329.4,-0.7,1.8,2471.503,13.29,0.009,45.0
2023-06-25T02:16:03,42.805,6.029,-0.001,0.003,-0.04,102.0,102.0,100.0,13.4,1505.2,329.8,-0.8,1.8,2471.509,13.29,0.003,341.6
2023-06-25T02:19:03,42.805,6.029,-0.011,0.018,-0.01,101.0,102.0,101.0,13.4,1505.2,350.9,-0.7,1.8,2471.463,13.29,0.021,328.6
2023-06-25T02:22:03,42.805,6.029,0.013,0.001,-0.003,101.0,101.0,101.0,13.4,1505.2,331.2,-0.8,1.8,2471.472,13.29,0.013,85.6
2023-06-25T02:25:03,42.805,6.029,-0.003,-0.004,-0.014,100.0,101.0,102.0,13.4,1505.2,332.9,-0.8,1.8,2471.454,13.29,0.005,216.9
2023-06-25T02:28:03,42.805,6.029,-0.004,0.003,-0.004,101.0,101.0,100.0,13.4,1505.2,349.3,-0.7,1.8,2471.455,13.29,0.005,306.9
2023-06-25T02:31:03,42.805,6.029,-0.007,-0.018,-0.023,101.0,101.0,100.0,13.4,1505.2,343.4,-0.7,1.8,2471.49,13.29,0.019,201.2
2023-06-25T02:34:03,42.805,6.029,0.0,-0.007,-0.019,102.0,102.0,101.0,13.4,1505.2,341.5,-0.8,1.8,2471.475,13.29,0.007,180.0
2023-06-25T02:37:03,42.805,6.029,0.017,-0.008,0.003,102.0,100.0,100.0,13.4,1505.2,323.8,-0.7,1.8,2471.466,13.29,0.018,115.2
2023-06-25T02:40:03,42.805,6.029,0.002,0.016,0.017,103.0,100.0,100.0,13.4,1505.2,338.2,-0.8,1.8,2471.443,13.29,0.016,7.1
2023-06-25T02:43:03,42.805,6.029,0.006,-0.03,-0.025,101.0,102.0,101.0,13.3,1505.2,347.2,-0.8,1.8,2471.423,13.29,0.03,168.7
2023-06-25T02:46:03,42.805,6.029,-0.004,-0.013,-0.022,102.0,101.0,101.0,13.3,1505.2,325.1,-0.7,1.8,2471.486,13.29,0.013,197.1
2023-06-25T02:49:03,42.805,6.029,-0.01,0.002,-0.03,102.0,101.0,100.0,13.3,1505.2,348.4,-0.8,1.8,2471.423,13.29,0.01,281.3
2023-06-25T02:52:03,42.805,6.029,-0.038,0.002,-0.027,102.0,101.0,100.0,13.4,1505.2,325.7,-0.7,1.8,2471.464,13.29,0.038,273.0
2023-06-25T02:55:03,42.805,6.029,-0.023,0.008,-0.033,101.0,102.0,101.0,13.4,1505.2,348.2,-0.8,1.8,2471.499,13.29,0.024,289.2
2023-06-25T02:58:03,42.805,6.029,-0.009,0.011,-0.008,102.0,102.0,101.0,13.3,1505.2,333.9,-0.8,1.8,2471.448,13.29,0.014,320.7
2023-06-25T03:04:03,42.805,6.029,0.008,-0.008,-0.03,101.0,102.0,101.0,13.4,1505.2,322.7,-0.8,1.8,2471.522,13.28,0.011,135.0
2023-06-25T03:07:03,42.805,6.029,0.005,0.017,0.004,102.0,101.0,100.0,13.3,1505.2,338.8,-0.8,1.8,2471.476,13.29,0.017,16.4
2023-06-25T03:10:03,42.805,6.029,-0.009,-0.008,-0.028,102.0,102.0,100.0,13.4,1505.2,326.3,-0.7,1.8,2471.488,13.29,0.012,228.4
2023-06-25T03:13:03,42.805,6.029,0.009,-0.027,-0.031,101.0,100.0,101.0,13.4,1505.2,332.6,-0.8,1.8,2471.486,13.29,0.028,161.6
2023-06-25T03:16:03,42.805,6.029,-0.007,-0.002,-0.012,100.0,103.0,103.0,13.4,1505.2,330.7,-0.8,1.8,2471.487,13.29,0.007,254.1
2023-06-25T03:19:03,42.805,6.029,-0.01,-0.027,-0.035,102.0,102.0,100.0,13.4,1505.2,347.9,-0.8,1.8,2471.47,13.29,0.028,200.3
2023-06-25T03:22:03,42.805,6.029,-0.022,0.009,-0.025,102.0,100.0,101.0,13.4,1505.2,324.5,-0.8,1.8,2471.43,13.29,0.023,292.2
2023-06-25T03:25:03,42.805,6.029,-0.017,0.004,-0.017,101.0,100.0,102.0,13.3,1505.2,334.3,-0.8,1.8,2471.451,13.29,0.017,283.2
2023-06-25T03:28:03,42.805,6.029,-0.018,0.003,0.005,102.0,100.0,101.0,13.3,1505.2,323.8,-0.8,1.9,2471.437,13.29,0.018,279.5
2023-06-25T03:31:03,42.805,6.029,0.0,-0.016,-0.015,102.0,101.0,101.0,13.4,1505.2,335.6,-0.8,1.8,2471.435,13.29,0.016,180.0
2023-06-25T03:34:03,42.805,6.029,-0.006,0.008,-0.021,101.0,101.0,101.0,13.3,1505.2,348.6,-0.8,1.8,2471.415,13.29,0.01,323.1
2023-06-25T03:37:03,42.805,6.029,-0.002,-0.01,-0.025,102.0,101.0,100.0,13.3,1505.2,334.9,-0.8,1.8,2471.455,13.29,0.01,191.3
2023-06-25T03:40:03,42.805,6.029,-0.024,0.011,-0.037,101.0,103.0,101.0,13.4,1505.2,346.8,-0.7,1.8,2471.45,13.29,0.026,294.6
2023-06-25T03:43:03,42.805,6.029,0.009,-0.016,-0.011,102.0,101.0,101.0,13.3,1505.2,336.9,-0.8,1.8,2471.431,13.29,0.018,150.6
2023-06-25T03:46:02,42.805,6.029,0.003,-0.008,-0.019,101.0,101.0,101.0,13.4,1505.2,329.7,-0.8,1.8,2471.417,13.29,0.008,159.4
2023-06-25T03:49:03,42.805,6.029,-0.004,-0.009,-0.007,101.0,101.0,101.0,13.3,1505.2,335.1,-0.7,1.8,2471.425,13.29,0.009,204.0
2023-06-25T03:52:02,42.805,6.029,-0.014,-0.011,0.019,101.0,101.0,100.0,13.4,1505.2,339.3,-0.8,1.8,2471.45,13.29,0.017,231.8
2023-06-25T03:55:03,42.805,6.029,-0.016,-0.018,-0.025,101.0,101.0,102.0,13.4,1505.2,332.9,-0.7,1.8,2471.42,13.29,0.024,221.6
2023-06-25T03:58:02,42.805,6.029,-0.016,-0.01,-0.037,100.0,101.0,101.0,13.4,1505.2,325.8,-0.8,1.8,2471.436,13.29,0.018,238.0
2023-06-25T04:04:02,42.805,6.029,-0.01,-0.016,-0.027,101.0,102.0,101.0,13.4,1505.2,343.4,-0.8,1.8,2471.473,13.29,0.018,212.0
2023-06-25T04:07:02,42.805,6.029,-0.007,0.002,-0.025,102.0,101.0,101.0,13.4,1505.2,342.6,-0.8,1.8,2471.482,13.29,0.007,285.9
2023-06-25T04:10:02,42.805,6.029,-0.001,-0.022,-0.027,101.0,102.0,100.0,13.4,1505.2,337.2,-0.8,1.8,2471.465,13.29,0.022,182.6
2023-06-25T04:13:02,42.805,6.029,0.011,-0.005,-0.035,102.0,101.0,105.0,13.3,1505.2,324.0,-0.8,1.8,2471.451,13.29,0.012,114.4
2023-06-25T04:16:03,42.805,6.029,-0.008,-0.002,-0.024,101.0,100.0,100.0,13.4,1505.2,325.1,-0.8,1.8,2471.423,13.29,0.008,256.0
2023-06-25T04:19:02,42.805,6.029,-0.006,0.011,-0.01,101.0,101.0,101.0,13.4,1505.2,332.5,-0.7,1.8,2471.438,13.29,0.012,331.4
2023-06-25T04:22:02,42.805,6.029,-0.006,-0.012,-0.037,101.0,101.0,101.0,13.4,1505.2,329.3,-0.8,1.8,2471.45,13.29,0.013,206.6
2023-06-25T04:25:02,42.805,6.029,0.02,-0.025,-0.014,101.0,101.0,100.0,13.3,1505.2,346.2,-0.8,1.8,2471.415,13.29,0.032,141.3
2023-06-25T04:28:02,42.805,6.029,0.0,-0.012,-0.02,101.0,101.0,101.0,13.4,1505.2,321.6,-0.8,1.8,2471.43,13.29,0.012,180.0
2023-06-25T04:31:02,42.805,6.029,-0.038,0.006,0.0,102.0,102.0,100.0,13.4,1505.2,333.8,-0.8,1.8,2471.428,13.29,0.038,279.0
2023-06-25T04:34:02,42.805,6.029,-0.003,-0.01,-0.007,101.0,101.0,101.0,13.4,1505.2,346.2,-0.8,1.8,2471.431,13.29,0.01,196.7
2023-06-25T04:37:02,42.805,6.029,0.016,-0.012,-0.036,101.0,101.0,103.0,13.3,1505.2,340.2,-0.8,1.8,2471.428,13.29,0.02,126.9
2023-06-25T04:40:02,42.805,6.029,0.012,-0.012,0.02,101.0,101.0,100.0,13.4,1505.2,343.4,-0.8,1.8,2471.448,13.29,0.016,135.0
2023-06-25T04:43:02,42.805,6.029,-0.016,-0.005,-0.05,103.0,101.0,101.0,13.3,1505.2,350.7,-0.8,1.8,2471.413,13.29,0.016,252.6
2023-06-25T04:46:02,42.805,6.029,-0.037,0.008,-0.038,102.0,101.0,101.0,13.4,1505.2,349.1,-0.8,1.8,2471.412,13.29,0.037,282.2
2023-06-25T04:49:02,42.805,6.029,-0.012,-0.028,-0.037,101.0,101.0,100.0,13.4,1505.2,352.1,-0.8,1.8,2471.396,13.29,0.03,203.2
2023-06-25T04:52:02,42.805,6.029,-0.017,-0.009,-0.053,101.0,101.0,101.0,13.4,1505.2,326.3,-0.8,1.8,2471.451,13.29,0.019,242.1
2023-06-25T04:55:02,42.805,6.029,0.001,-0.015,-0.038,101.0,102.0,100.0,13.3,1505.2,335.6,-0.7,1.8,2471.436,13.29,0.015,176.2
2023-06-25T04:58:02,42.805,6.029,-0.011,-0.018,-0.027,101.0,101.0,101.0,13.3,1505.2,341.5,-0.7,1.8,2471.416,13.29,0.021,211.4
2023-06-25T05:04:02,42.805,6.029,-0.006,-0.011,-0.029,100.0,101.0,101.0,13.4,1505.2,329.7,-0.8,1.8,2471.414,13.29,0.012,208.6
2023-06-25T05:07:02,42.805,6.029,-0.027,0.027,-0.033,103.0,100.0,101.0,13.3,1505.2,345.4,-0.8,1.8,2471.46,13.29,0.038,315.0
2023-06-25T05:10:03,42.805,6.029,0.0,-0.003,-0.008,102.0,101.0,102.0,13.3,1505.2,331.3,-0.8,1.8,2471.458,13.29,0.003,180.0
2023-06-25T05:13:03,42.805,6.029,-0.011,0.002,-0.038,101.0,100.0,101.0,13.3,1505.2,328.8,-0.8,1.8,2471.43,13.29,0.011,280.3
2023-06-25T05:16:02,42.805,6.029,-0.02,-0.002,-0.03,100.0,102.0,100.0,13.4,1505.2,340.7,-0.8,1.8,2471.423,13.29,0.02,264.3
2023-06-25T05:19:02,42.805,6.029,-0.011,0.009,-0.014,102.0,101.0,100.0,13.4,1505.2,350.3,-0.8,1.8,2471.406,13.29,0.014,309.3
2023-06-25T05:22:02,42.805,6.029,-0.009,0.01,-0.016,104.0,101.0,100.0,13.3,1505.2,326.3,-0.8,1.8,2471.379,13.29,0.013,318.0
2023-06-25T05:25:02,42.805,6.029,-0.01,-0.013,-0.037,101.0,102.0,100.0,13.3,1505.2,327.9,-0.8,1.8,2471.421,13.29,0.016,217.6
2023-06-25T05:28:02,42.805,6.029,-0.041,0.015,-0.059,102.0,100.0,100.0,13.3,1505.2,332.5,-0.8,1.8,2471.411,13.29,0.043,290.1
2023-06-25T05:31:02,42.805,6.029,-0.009,0.014,-0.029,101.0,102.0,100.0,13.4,1505.2,337.0,-0.7,1.8,2471.433,13.29,0.016,327.3
2023-06-25T05:34:02,42.805,6.029,-0.007,0.017,0.007,102.0,102.0,100.0,13.3,1505.2,343.5,-0.8,1.8,2471.428,13.29,0.018,337.6
2023-06-25T05:37:02,42.805,6.029,-0.005,-0.009,-0.018,102.0,101.0,101.0,13.4,1505.2,347.3,-0.7,1.8,2471.423,13.29,0.01,209.1
2023-06-25T05:40:02,42.805,6.029,0.01,0.004,0.003,102.0,101.0,101.0,13.4,1505.2,337.5,-0.8,1.8,2471.397,13.29,0.01,68.2
2023-06-25T05:43:03,42.805,6.029,-0.005,-0.015,-0.032,101.0,101.0,101.0,13.3,1505.2,327.1,-0.8,1.9,2471.365,13.29,0.015,198.4
2023-06-25T05:46:02,42.805,6.029,-0.028,-0.006,-0.033,101.0,102.0,101.0,13.4,1505.2,346.7,-0.8,1.8,2471.379,13.29,0.028,257.9
2023-06-25T05:49:02,42.805,6.029,-0.036,-0.005,-0.003,101.0,102.0,100.0,13.4,1505.2,333.4,-0.8,1.8,2471.411,13.29,0.036,262.1
2023-06-25T05:52:02,42.805,6.029,0.007,0.005,0.001,102.0,100.0,101.0,13.3,1505.2,329.9,-0.7,1.8,2471.358,13.29,0.008,54.5
2023-06-25T05:55:03,42.805,6.029,0.0,-0.002,-0.03,103.0,101.0,100.0,13.4,1505.2,322.7,-0.7,1.8,2471.375,13.29,0.002,180.0
2023-06-25T05:58:03,42.805,6.029,-0.03,0.021,-0.007,101.0,101.0,102.0,13.4,1505.2,331.9,-0.8,1.8,2471.424,13.29,0.036,305.0
2023-06-25T06:04:03,42.805,6.029,-0.001,-0.01,-0.021,101.0,102.0,100.0,13.4,1505.2,342.5,-0.8,1.8,2471.427,13.29,0.01,185.7
2023-06-25T06:07:02,42.805,6.029,0.015,-0.017,-0.026,102.0,99.0,103.0,13.4,1505.2,339.7,-0.7,1.8,2471.383,13.29,0.022,138.6
2023-06-25T06:10:03,42.805,6.029,-0.022,0.028,-0.01,102.0,100.0,100.0,13.3,1505.2,349.3,-0.7,1.8,2471.422,13.29,0.035,321.8
2023-06-25T06:13:03,42.805,6.029,-0.003,0.0,-0.004,103.0,100.0,107.0,13.4,1505.2,329.8,-0.7,1.8,2471.416,13.29,0.003,270.0
2023-06-25T06:16:03,42.805,6.029,0.003,0.005,-0.028,100.0,102.0,101.0,13.4,1505.2,324.8,-0.8,1.8,2471.395,13.29,0.005,31.0
2023-06-25T06:19:03,42.805,6.029,-0.007,-0.009,-0.055,102.0,102.0,101.0,13.4,1505.2,338.2,-0.8,1.8,2471.381,13.29,0.011,217.9
2023-06-25T06:22:02,42.805,6.029,0.018,-0.003,-0.026,101.0,101.0,101.0,13.4,1505.2,341.2,-0.8,1.8,2471.379,13.29,0.018,99.5
2023-06-25T06:25:03,42.805,6.029,-0.036,0.006,-0.052,102.0,101.0,100.0,13.4,1505.2,336.6,-0.7,1.8,2471.381,13.29,0.036,279.5
2023-06-25T06:28:03,42.805,6.029,-0.028,0.02,-0.022,101.0,101.0,101.0,13.3,1505.2,344.5,-0.8,1.8,2471.387,13.29,0.034,305.5
2023-06-25T06:31:03,42.805,6.029,-0.013,0.001,-0.015,100.0,103.0,100.0,13.4,1505.2,335.1,-0.8,1.8,2471.406,13.29,0.013,274.4
2023-06-25T06:34:03,42.805,6.029,-0.026,0.0,-0.056,102.0,102.0,101.0,13.4,1505.2,334.2,-0.7,1.8,2471.38,13.29,0.026,270.0
2023-06-25T06:37:02,42.805,6.029,-0.009,0.025,-0.004,102.0,99.0,101.0,13.4,1505.2,340.8,-0.8,1.8,2471.339,13.29,0.026,340.2
2023-06-25T06:40:03,42.805,6.029,-0.006,0.034,0.003,101.0,101.0,100.0,13.4,1505.2,342.7,-0.8,1.8,2471.352,13.29,0.034,350.0
2023-06-25T06:43:03,42.805,6.029,0.004,-0.003,-0.046,102.0,101.0,101.0,13.4,1505.2,330.2,-0.8,1.8,2471.398,13.29,0.005,126.9
2023-06-25T06:46:03,42.805,6.029,-0.021,-0.009,-0.05,101.0,101.0,102.0,13.4,1505.2,341.5,-0.8,1.8,2471.353,13.29,0.022,246.8
2023-06-25T06:49:02,42.805,6.029,0.019,-0.012,0.003,101.0,101.0,101.0,13.3,1505.2,348.9,-0.7,1.8,2471.351,13.29,0.022,122.3
2023-06-25T06:52:02,42.805,6.029,-0.004,0.004,-0.014,101.0,101.0,101.0,13.4,1505.2,330.9,-0.8,1.8,2471.371,13.29,0.005,315.0
2023-06-25T06:55:03,42.805,6.029,-0.018,0.007,-0.016,101.0,100.0,101.0,13.4,1505.2,333.0,-0.8,1.8,2471.358,13.29,0.019,291.2
2023-06-25T06:58:03,42.805,6.029,-0.012,-0.009,-0.033,101.0,101.0,102.0,13.4,1505.2,333.4,-0.8,1.8,2471.361,13.29,0.015,233.1
2023-06-25T07:04:02,42.805,6.029,0.009,0.0,-0.012,101.0,101.0,103.0,13.4,1505.2,340.0,-0.7,1.8,2471.441,13.29,0.009,90.0
2023-06-25T07:07:02,42.805,6.029,-0.027,-0.002,-0.05,101.0,102.0,100.0,13.4,1505.2,340.4,-0.8,1.8,2471.406,13.29,0.027,265.8
2023-06-25T07:10:03,42.805,6.029,0.005,0.004,-0.044,102.0,101.0,100.0,13.4,1505.2,342.3,-0.8,1.8,2471.4,13.29,0.006,51.3
2023-06-25T07:13:03,42.805,6.029,0.005,0.016,0.006,101.0,101.0,100.0,13.4,1505.2,336.0,-0.8,1.8,2471.384,13.29,0.016,17.4
2023-06-25T07:16:03,42.805,6.029,-0.019,0.001,-0.039,102.0,102.0,100.0,13.3,1505.2,325.6,-0.7,1.8,2471.356,13.29,0.019,273.0
2023-06-25T07:19:03,42.805,6.029,0.018,0.011,0.001,103.0,99.0,100.0,13.4,1505.2,341.5,-0.7,1.8,2471.398,13.29,0.021,58.6
2023-06-25T07:22:02,42.805,6.029,-0.013,0.013,-0.005,101.0,103.0,104.0,13.3,1505.2,338.7,-0.8,1.8,2471.386,13.29,0.018,315.0
2023-06-25T07:25:03,42.805,6.029,-0.005,-0.006,-0.053,102.0,102.0,101.0,13.4,1505.2,339.3,-0.7,1.8,2471.414,13.29,0.007,219.8
2023-06-25T07:28:03,42.805,6.029,-0.023,0.008,-0.04,101.0,101.0,100.0,13.4,1505.2,328.3,-0.8,1.8,2471.388,13.29,0.024,289.2
2023-06-25T07:31:03,42.805,6.029,-0.012,0.011,-0.041,102.0,102.0,100.0,13.4,1505.2,340.4,-0.8,1.8,2471.372,13.29,0.016,312.5
2023-06-25T07:34:03,42.805,6.029,-0.002,0.011,-0.015,102.0,101.0,101.0,13.3,1505.2,333.0,-0.7,1.9,2471.369,13.29,0.011,349.7
2023-06-25T07:37:02,42.805,6.029,-0.001,-0.012,-0.04,102.0,101.0,101.0,13.4,1505.2,330.3,-0.8,1.8,2471.343,13.29,0.012,184.8
2023-06-25T07:40:03,42.805,6.029,-0.006,0.033,0.004,102.0,101.0,100.0,13.4,1505.2,347.9,-0.8,1.8,2471.402,13.29,0.033,349.7
2023-06-25T07:43:03,42.805,6.029,-0.041,0.01,-0.033,103.0,101.0,100.0,13.3,1505.2,323.3,-0.8,1.8,2471.357,13.29,0.042,283.7
2023-06-25T07:46:03,42.805,6.029,-0.021,0.0,-0.037,101.0,100.0,100.0,13.3,1505.2,330.1,-0.8,1.8,2471.356,13.29,0.021,270.0
2023-06-25T07:49:03,42.805,6.029,-0.003,0.017,-0.042,103.0,100.0,99.0,13.4,1505.2,327.5,-0.7,1.8,2471.362,13.29,0.017,350.0
2023-06-25T07:52:02,42.805,6.029,0.008,0.004,-0.017,101.0,102.0,100.0,13.4,1505.2,331.2,-0.8,1.8,2471.405,13.29,0.008,63.4
2023-06-25T07:55:03,42.805,6.029,-0.015,0.019,-0.017,102.0,101.0,101.0,13.4,1505.2,325.8,-0.7,1.8,2471.374,13.29,0.024,321.7
2023-06-25T07:58:03,42.805,6.029,0.001,0.01,-0.017,101.0,103.0,100.0,13.3,1505.2,325.8,-0.8,1.8,2471.375,13.29,0.01,5.7
2023-06-25T08:04:02,42.805,6.029,0.002,0.004,0.001,102.0,101.0,100.0,13.4,1505.2,352.1,-0.8,1.8,2471.418,13.29,0.004,26.6
2023-06-25T08:07:02,42.805,6.029,0.004,0.009,0.006,100.0,101.0,102.0,13.4,1505.2,322.7,-0.8,1.8,2471.417,13.29,0.009,24.0
2023-06-25T08:10:03,42.805,6.029,-0.007,-0.007,-0.019,102.0,100.0,101.0,13.4,1505.2,338.9,-0.8,1.8,2471.395,13.29,0.009,225.0
2023-06-25T08:13:03,42.805,6.029,-0.017,0.023,-0.025,101.0,102.0,99.0,13.4,1505.2,320.1,-0.8,1.8,2471.404,13.29,0.028,323.5
2023-06-25T08:16:03,42.805,6.029,0.011,0.0,0.011,101.0,101.0,101.0,13.4,1505.2,350.5,-0.8,1.8,2471.403,13.29,0.011,90.0
2023-06-25T08:19:03,42.805,6.029,-0.018,0.0,-0.004,102.0,102.0,100.0,13.4,1505.2,341.9,-0.8,1.8,2471.405,13.29,0.018,270.0
2023-06-25T08:22:02,42.805,6.029,-0.009,0.023,0.024,102.0,101.0,101.0,13.4,1505.2,332.5,-0.8,1.8,2471.394,13.29,0.024,338.6
2023-06-25T08:25:03,42.805,6.029,-0.024,0.009,-0.048,102.0,102.0,100.0,13.4,1505.2,350.1,-0.8,1.8,2471.402,13.29,0.025,290.6
2023-06-25T08:28:03,42.805,6.029,-0.02,0.017,-0.014,101.0,101.0,101.0,13.3,1505.2,323.1,-0.8,1.8,2471.388,13.29,0.026,310.4
2023-06-25T08:31:03,42.805,6.029,-0.014,0.024,-0.012,102.0,100.0,100.0,13.4,1505.2,348.2,-0.8,1.8,2471.372,13.29,0.027,329.7
2023-06-25T08:34:02,42.805,6.029,-0.008,0.006,-0.039,102.0,101.0,100.0,13.3,1505.2,336.8,-0.8,1.8,2471.35,13.29,0.01,306.9
2023-06-25T08:37:02,42.805,6.029,-0.005,0.012,-0.006,104.0,100.0,101.0,13.3,1505.2,338.2,-0.8,1.8,2471.371,13.29,0.013,337.4
2023-06-25T08:40:03,42.805,6.029,0.005,-0.002,-0.004,102.0,102.0,100.0,13.3,1505.2,329.2,-0.8,1.8,2471.386,13.29,0.005,111.8
2023-06-25T08:43:03,42.805,6.029,-0.001,0.03,0.001,101.0,101.0,100.0,13.3,1505.2,351.7,-0.7,1.8,2471.423,13.29,0.03,358.1
2023-06-25T08:46:03,42.805,6.029,0.003,0.022,-0.004,101.0,102.0,100.0,13.4,1505.2,339.8,-0.8,1.9,2471.416,13.29,0.022,7.8
2023-06-25T08:49:03,42.805,6.029,0.009,0.018,0.0,101.0,100.0,101.0,13.3,1505.2,327.1,-0.8,1.8,2471.415,13.29,0.02,26.6
2023-06-25T08:52:02,42.805,6.029,0.016,-0.008,0.011,100.0,100.0,100.0,13.4,1505.2,348.6,-0.8,1.9,2471.379,13.29,0.017,116.6
2023-06-25T08:55:03,42.805,6.029,0.01,0.007,-0.039,101.0,101.0,101.0,13.4,1505.2,338.8,-0.8,1.8,2471.424,13.29,0.012,55.0
2023-06-25T08:58:03,42.805,6.029,0.001,-0.013,-0.039,101.0,102.0,100.0,13.4,1505.2,348.9,-0.8,1.8,2471.38,13.29,0.013,175.6
2023-06-25T09:04:02,42.805,6.029,0.0,-0.012,-0.019,100.0,101.0,100.0,13.4,1505.2,327.1,-0.7,1.8,2471.457,13.29,0.012,180.0
2023-06-25T09:07:02,42.805,6.029,-0.01,-0.007,-0.01,100.0,103.0,101.0,13.3,1505.2,333.9,-0.8,1.8,2471.429,13.29,0.012,235.0
2023-06-25T09:10:03,42.805,6.029,-0.004,-0.004,-0.073,101.0,101.0,100.0,13.4,1505.2,325.3,-0.8,1.8,2471.429,13.29,0.005,225.0
2023-06-25T09:13:03,42.805,6.029,-0.001,0.014,-0.041,100.0,101.0,101.0,13.4,1505.2,322.5,-0.7,1.8,2471.418,13.29,0.014,355.9
2023-06-25T09:16:03,42.805,6.029,-0.001,0.008,-0.011,101.0,102.0,100.0,13.4,1505.2,330.2,-0.8,1.8,2471.376,13.29,0.008,352.9
2023-06-25T09:19:03,42.805,6.029,-0.025,0.014,-0.024,101.0,101.0,101.0,13.4,1505.2,331.7,-0.8,1.8,2471.426,13.29,0.028,299.3
2023-06-25T09:22:02,42.805,6.029,-0.003,0.018,-0.016,102.0,102.0,101.0,13.4,1505.2,336.8,-0.8,1.8,2471.398,13.29,0.018,350.5
2023-06-25T09:25:03,42.805,6.029,-0.003,0.009,-0.006,101.0,103.0,100.0,13.3,1505.2,346.2,-0.8,1.8,2471.433,13.29,0.009,341.6
2023-06-25T09:28:03,42.805,6.029,-0.004,0.028,-0.008,103.0,101.0,100.0,13.4,1505.2,338.8,-0.7,1.8,2471.426,13.29,0.028,351.9
2023-06-25T09:31:03,42.805,6.029,0.008,0.0,-0.009,101.0,101.0,101.0,13.3,1505.2,328.5,-0.8,1.8,2471.407,13.29,0.008,90.0
2023-06-25T09:34:03,42.805,6.029,-0.002,0.015,-0.005,101.0,101.0,101.0,13.3,1505.2,344.4,-0.8,1.8,2471.394,13.29,0.015,352.4
2023-06-25T09:37:02,42.805,6.029,-0.008,0.008,-0.018,101.0,102.0,100.0,13.4,1505.2,324.8,-0.8,1.8,2471.414,13.29,0.011,315.0
2023-06-25T09:40:03,42.805,6.029,-0.019,0.009,-0.033,102.0,102.0,101.0,13.4,1505.2,352.0,-0.8,1.8,2471.438,13.29,0.021,295.3
2023-06-25T09:43:03,42.805,6.029,0.003,0.009,-0.011,102.0,102.0,101.0,13.3,1505.2,327.7,-0.8,1.8,2471.445,13.29,0.009,18.4
2023-06-25T09:46:03,42.805,6.029,0.002,0.019,0.026,103.0,101.0,101.0,13.4,1505.2,327.1,-0.8,1.8,2471.423,13.29,0.019,6.0
2023-06-25T09:49:03,42.805,6.029,-0.011,0.005,-0.033,101.0,101.0,101.0,13.4,1505.2,339.4,-0.8,1.8,2471.372,13.29,0.012,294.4
2023-06-25T09:52:02,42.805,6.029,-0.022,0.012,-0.002,102.0,101.0,101.0,13.4,1505.2,336.1,-0.7,1.8,2471.412,13.29,0.025,298.6